Flag for Kenya Weather past 2 weeks in Nairobi, Kenya

Now
66 °F

Partly sunny.


Feels Like: 66 °F
Forecast: 62 / 75 °F
Wind: No wind

Location: Nairobi / Wilson

Current Time: Apr 26, 2015 at 12:03:08 PM

Latest Report: Apr 26, 2015 at 10:00 AM


Visibility: N/A

Pressure: 30.15 "Hg

Humidity: 83%

Dew point: 61 °F

Location of NairobiLocation

Historic Weather in Nairobi — Graph

°F

Nairobi temperature yesterday

Maximum temperature yesterday: 77 °F (at 2:00 PM)
Minimum temperature yesterday: 63 °F (at 6:00 AM)
Average temperature yesterday: 70 °F

Past Weeks' High & Low Weather Summary

 TemperatureHumidityPressure
High81 °F (Apr 12, 3:00 PM)100% (Apr 17, 7:00 AM)30.27 "Hg (Apr 17, 7:00 AM)
Low61 °F (Apr 17, 7:00 AM)30% (Apr 12, 5:00 PM)30.01 "Hg (Apr 14, 6:00 PM)
Average71 °F69%30.14 "Hg
* Reported Apr 11 12:00 Noon — Apr 26 10:00 AM, Nairobi, Weather by CustomWeather, © 2015

Note: Actual official high and low records may vary slightly from our data, if they occured in-between our weather recording intervals... More about our weather records

Advertising

Nairobi weather history for previous 24 hours

 ConditionsComfort  
Time TempWeatherWind HumidityBarometerVisibility
10:00 AM
Sun, Apr 26
66 °FPartly sunny.No wind83%30.15 "HgN/A
8:00 AM63 °FPartly sunny.No wind94%30.12 "HgN/A
7:00 AM63 °FPartly sunny.No wind94%30.12 "HgN/A
6:00 AM63 °FPassing clouds.No wind94%30.12 "HgN/A
5:00 AM63 °FPassing clouds.No wind94%30.12 "HgN/A
4:00 AM63 °FPassing clouds.No wind94%30.12 "HgN/A
9:00 PM
Sat, Apr 25
66 °FPassing clouds.No wind83%30.12 "HgN/A
8:00 PM70 °FPassing clouds.9 mph73%30.12 "HgN/A
7:00 PM73 °FPassing clouds.8 mph65%30.07 "HgN/A
6:00 PM77 °FRain. Partly sunny.8 mph54%30.07 "HgN/A
5:00 PM77 °FPartly sunny.No wind57%30.07 "HgN/A
4:00 PM75 °FPartly sunny.No wind54%30.09 "HgN/A
3:00 PM77 °FPartly sunny.No wind51%30.09 "HgN/A
2:00 PM77 °FPartly sunny.6 mph51%30.09 "HgN/A
1:00 PM75 °FPartly sunny.6 mph54%30.15 "HgN/A
12:00 PM73 °FPartly sunny.6 mph61%30.15 "HgN/A
Weather by CustomWeather, © 2015

See weather overviewHow to use our weather pages